Current weather by "City, St" or "zip code"  
 
Advertise Here

Current Conditions: Norman / Max Westheimer, OK

Fair


90.0 F

Last Updated on Jun 18 2021, 7:47 pm CDT
Humidity: 49%
Wind Speed: SE 16.1 G 19.6 mph
Barometer 29.87 in
Dewpoint: 68.0 F
Visibility: 7.00 mi
Precip: --
Heat Index: 94 F
Wind Chill: NA
Current conditions at:

Norman / Max Westheimer, OK (KOUN)

Lat: 35.2435 Lon: 97.4708

Local Radar Image active severe weather and emergency alerts image image weather storm and storm spotter reports image weather observation monitoring service image
Local
Radar
Active
Alerts
Storm Reports Obs
Monitoring

Sign-up For Email & Text Message Weather Alert Notification Services


Advertise Here

Observation History for Norman / Max Westheimer, OK


Time Wind
(mph)
Vis
(mi)
Weather Precip (in) Temperature (F) Relative
Humidity
Wind
Chill
(F)
Heat
Index
(F)
Pressure
Air Dwpt altimeter
(in)
sea level
(mb)
Rmks
7:47 pm CDT SE 16.1 G 19.6 7.00 Fair -- 90.0 68.0 49% NA 94 29.87 M
6:47 pm CDT S 15.0 G 19.6 7.00 Fair -- 93.0 64.4 39% NA 95 29.86 M
5:47 pm CDT S 15.0 G 19.6 7.00 Fair -- 93.0 66.2 41% NA 96 29.87 M
3:45 pm CDT S 16.1 G 21.9 10.00 Partly Cloudy -- 95.0 66.2 39% NA 98 29.98 M
2:45 pm CDT S 13.8 10.00 Partly Cloudy -- 95.0 66.2 39% NA 98 29.90 M
1:45 pm CDT S 13.8 G 20.7 10.00 Fair -- 93.0 66.2 41% NA 96 29.91 M
12:45 pm CDT S 11.5 10.00 Fair -- 91.0 68.0 46% NA 95 29.92 M
11:45 am CDT S 12.7 G 18.4 10.00 Fair -- 90.0 68.0 49% NA 94 29.95 M
10:45 am CDT S 11.5 10.00 Fair -- 88.0 71.6 59% NA 95 29.95 M
9:45 am CDT S 12.7 10.00 Fair -- 84.0 71.6 66% NA 89 29.96 M
8:45 am CDT S 10.4 10.00 Fair -- 81.0 69.8 70% NA 85 29.96 M
7:45 am CDT S 8.1 10.00 Fair -- 75.0 69.8 83% NA NA 29.95 M
6:55 am CDT S 6.9 10.00 Fair -- 74.0 68.2 81% NA NA 29.94 M
5:35 am CDT SW 5.8 10.00 Fair -- 73.0 68.2 85% NA NA 29.94 M
4:55 am CDT S 6.9 10.00 Fair -- 74.0 68.4 83% NA NA 29.93 M
3:55 am CDT S 4.6 10.00 Fair -- 74.0 68.7 84% NA NA 29.94 M
2:55 am CDT S 8.1 10.00 Fair -- 75.0 69.4 83% NA NA 29.94 M
1:55 am CDT S 6.9 10.00 Fair -- 77.0 69.4 79% NA NA 29.94 M
12:55 am CDT S 6.9 10.00 Fair -- 77.0 68.7 75% NA NA 29.96 M
11:55 pm CDT S 6.9 10.00 Fair -- 79.0 69.1 72% NA NA 29.97 M
10:55 pm CDT S 6.9 10.00 Fair -- 81.0 68.4 66% NA 84 29.96 M
8:45 pm CDT SE 8.1 10.00 Fair -- 86.0 68.0 55% NA 89 29.95 M
6:48 pm CDT S 10.4 10.00 Fair -- 93.0 66.2 41% NA 96 29.98 M
7:45 pm CDT S 11.5 10.00 Fair -- 91.0 66.2 44% NA 94 29.94 M

Regional Weather Observation


Oklahoma City, Will Rogers World Airport, OK (KOKC)

A Few Clouds
86.0 F

Oklahoma City, Wiley Post Airport, OK (KPWA)

Fair
89.0 F

Sundance Airport, OK (KHSD)

Fair
90.0 F

Norman / Max Westheimer, OK (KOUN)

Fair
90.0 F

Tinker Air Force Base, OK (KTIK)

Fair
87.0 F

Chickasha, Chickasha Municipal Airport, OK (KCHK)

Fair
88.0 F
Advertise Here

Advertise Here